Weather History for Mount Pleasant, SC

Change the Weather History Date:

Monday, November 25, 2013

  Actual Average (KCHS) Record (KCHS)
Temperature  
Mean Temperature 42 °F 56 °F  
Max Temperature 51 °F 67 °F 82 °F (1973)
Min Temperature 32 °F 45 °F 15 °F (1950)
Degree Days  
Heating Degree Days 24 9  
Month to date heating degree days 171  
Since 1 July heating degree days 240  
Cooling Degree Days 0 1  
Month to date cooling degree days 30  
Year to date cooling degree days 2294  
Moisture  
Dew Point 33 °F    
Average Humidity 72    
Maximum Humidity 100    
Minimum Humidity 48    
Precipitation  
Precipitation 0.00 in 0.08 in 1.87 in (1972)
Month to date precipitation 2.02  
Year to date precipitation 47.51  
Sea Level Pressure  
Sea Level Pressure 30.44 in    
Wind  
Wind Speed 7 mph (NNE)    
Max Wind Speed 12 mph    
Max Gust Speed 23 mph    
Visibility 10 miles    
Events      
T = Trace of Precipitation, MM = Missing Value Source: NWS Daily Summary

Daily Weather History Graph

Daily Weather History Graph

Search for Another Location

Airport:

Trip Planner

Search our weather history database for the weather conditions in past years. The results will help you decide how hot, cold, wet, or windy it might be!

Date:

Astronomy

Nov. 25, 2013 Rise Set
Actual Time 6:58 AM EST 5:13 PM EST
Civil Twilight 6:32 AM EST 5:40 PM EST
Nautical Twilight 6:01 AM EST 6:10 PM EST
Astronomical Twilight 5:32 AM EST 6:40 PM EST
Moon No Moon Rise 12:27 PM EST (11/25)
Length of Visible Light 11h 08m
Length of Day
10h 14m
Waning Gibbous, 51% of the Moon is Illuminated
Nov 25
Waning Gibbous
Nov 25
Last Quarter
Dec 2
New
Dec 9
First Quarter
Dec 17
Full

Hourly Weather History & Observations

Time (EST) Temp. Windchill Dew Point Humidity Pressure Visibility Wind Dir Wind Speed Gust Speed Precip Events Conditions
12:15 AM 33.8 °F 28.6 °F 23.0 °F 65% 30.52 in 10.0 mi NNE 5.8 mph - N/A   Clear
12:35 AM 33.8 °F 27.7 °F 21.2 °F 60% 30.52 in 10.0 mi North 6.9 mph - N/A   Clear
12:55 AM 33.8 °F 27.7 °F 21.2 °F 60% 30.51 in 10.0 mi NNE 6.9 mph - N/A   Clear
1:15 AM 33.8 °F 27.0 °F 19.4 °F 56% 30.51 in 10.0 mi NNE 8.1 mph - N/A   Clear
1:35 AM 33.8 °F 30.8 °F 19.4 °F 56% 30.51 in 10.0 mi NNE 3.5 mph - N/A   Clear
1:55 AM 33.8 °F 28.6 °F 19.4 °F 56% 30.50 in 10.0 mi NNE 5.8 mph - N/A   Clear
2:15 AM 33.8 °F 29.6 °F 19.4 °F 56% 30.50 in 10.0 mi NNE 4.6 mph - N/A   Clear
2:35 AM 32.0 °F 24.8 °F 19.4 °F 60% 30.50 in 10.0 mi NNE 8.1 mph - N/A   Clear
2:55 AM 32.0 °F 28.7 °F 19.4 °F 60% 30.50 in 10.0 mi North 3.5 mph - N/A   Clear
3:15 AM 32.0 °F 26.4 °F 19.4 °F 60% 30.50 in 10.0 mi North 5.8 mph - N/A   Clear
3:35 AM 32.0 °F 27.5 °F 19.4 °F 60% 30.50 in 10.0 mi North 4.6 mph - N/A   Clear
3:55 AM 32.0 °F 26.4 °F 19.4 °F 60% 30.49 in 10.0 mi North 5.8 mph - N/A   Clear
4:15 AM 32.0 °F 26.4 °F 19.4 °F 60% 30.50 in 10.0 mi North 5.8 mph - N/A   Clear
4:35 AM 32.0 °F 25.6 °F 19.4 °F 60% 30.50 in 10.0 mi North 6.9 mph - N/A   Clear
4:55 AM 32.0 °F 24.8 °F 19.4 °F 60% 30.50 in 10.0 mi North 8.1 mph - N/A   Clear
5:15 AM 32.0 °F 26.4 °F 19.4 °F 60% 30.49 in 10.0 mi North 5.8 mph - N/A   Clear
5:35 AM 32.0 °F 26.4 °F 19.4 °F 60% 30.50 in 10.0 mi North 5.8 mph - N/A   Partly Cloudy
5:55 AM 32.0 °F 25.6 °F 17.6 °F 55% 30.50 in 10.0 mi NNE 6.9 mph - N/A   Mostly Cloudy
6:15 AM 32.0 °F 24.8 °F 17.6 °F 55% 30.51 in 10.0 mi North 8.1 mph - N/A   Overcast
6:35 AM 32.0 °F 24.8 °F 17.6 °F 55% 30.51 in 10.0 mi North 8.1 mph - N/A   Mostly Cloudy
6:55 AM 32.0 °F 25.6 °F 17.6 °F 55% 30.52 in 10.0 mi North 6.9 mph - N/A   Clear
7:15 AM 32.0 °F 26.4 °F 17.6 °F 55% 30.52 in 10.0 mi North 5.8 mph - N/A   Clear
7:35 AM 32.0 °F 25.6 °F 17.6 °F 55% 30.53 in 10.0 mi North 6.9 mph - N/A   Clear
7:55 AM 32.0 °F 25.6 °F 15.8 °F 51% 30.52 in 10.0 mi NNE 6.9 mph - N/A   Clear
8:15 AM 33.8 °F 27.7 °F 15.8 °F 48% 30.53 in 10.0 mi North 6.9 mph - N/A   Clear
8:35 AM 35.6 °F 29.2 °F 17.6 °F 48% 30.52 in 10.0 mi NE 8.1 mph - N/A   Clear
8:55 AM 35.6 °F 28.6 °F 19.4 °F 52% 30.53 in 10.0 mi North 9.2 mph 17.3 mph N/A   Partly Cloudy
9:15 AM 37.4 °F 31.4 °F 21.2 °F 52% 30.53 in 10.0 mi NNE 8.1 mph 17.3 mph N/A   Clear
9:35 AM 39.2 °F 33.0 °F 24.8 °F 56% 30.52 in 10.0 mi NNE 9.2 mph - N/A   Clear
9:55 AM 41.0 °F 36.4 °F 26.6 °F 57% 30.52 in 10.0 mi NNE 6.9 mph 18.4 mph N/A   Clear
10:15 AM 42.8 °F 36.6 °F 28.4 °F 57% 30.52 in 10.0 mi NNE 11.5 mph 17.3 mph N/A   Clear
10:35 AM 44.6 °F 39.2 °F 30.2 °F 57% 30.52 in 10.0 mi NE 10.4 mph 18.4 mph N/A   Clear
10:55 AM 44.6 °F 39.2 °F 32.0 °F 61% 30.52 in 10.0 mi NE 10.4 mph 18.4 mph N/A   Clear
11:15 AM 46.4 °F 41.5 °F 32.0 °F 57% 30.49 in 10.0 mi NE 10.4 mph 17.3 mph N/A   Clear
11:35 AM 46.4 °F 41.9 °F 33.8 °F 62% 30.48 in 10.0 mi NE 9.2 mph 23.0 mph N/A   Clear
11:55 AM 48.2 °F - 35.6 °F 62% 30.48 in 10.0 mi East 9.2 mph 17.3 mph N/A   Clear
12:15 PM 48.2 °F - 35.6 °F 62% 30.46 in 10.0 mi NE 10.4 mph 17.3 mph N/A   Clear
12:35 PM 48.2 °F - 37.4 °F 66% 30.45 in 10.0 mi NE 8.1 mph 17.3 mph N/A   Clear
12:55 PM 48.2 °F - 37.4 °F 66% 30.44 in 10.0 mi ENE 8.1 mph 17.3 mph N/A   Clear
1:15 PM 50.0 °F - 37.4 °F 62% 30.43 in 9.0 mi ENE 5.8 mph - N/A   Clear
1:35 PM 48.2 °F - 37.4 °F 66% 30.43 in 10.0 mi NE 8.1 mph 16.1 mph N/A   Clear
1:55 PM 50.0 °F - 37.4 °F 62% 30.42 in 10.0 mi ESE 3.5 mph 16.1 mph N/A   Clear
2:15 PM 50.0 °F - 37.4 °F 62% 30.42 in 9.0 mi NE 8.1 mph - N/A   Clear
2:35 PM 50.0 °F - 39.2 °F 66% 30.41 in 10.0 mi ENE 6.9 mph - N/A   Clear
2:55 PM 48.2 °F - 39.2 °F 71% 30.41 in 10.0 mi ENE 6.9 mph 18.4 mph N/A   Mostly Cloudy
3:15 PM 48.2 °F - 39.2 °F 71% 30.41 in 10.0 mi NE 8.1 mph - N/A   Overcast
3:35 PM 48.2 °F - 39.2 °F 71% 30.40 in 10.0 mi Calm Calm - N/A   Overcast
3:55 PM 48.2 °F - 41.0 °F 76% 30.40 in 10.0 mi NE 4.6 mph 18.4 mph N/A   Overcast
4:15 PM 48.2 °F - 42.8 °F 82% 30.39 in 9.0 mi NNE 9.2 mph 17.3 mph N/A   Overcast
4:35 PM 48.2 °F - 42.8 °F 82% 30.39 in 10.0 mi NE 4.6 mph - N/A   Overcast
4:55 PM 46.4 °F 42.4 °F 42.8 °F 87% 30.38 in 10.0 mi NNE 8.1 mph - N/A   Overcast
5:15 PM 46.4 °F 43.5 °F 44.6 °F 93% 30.38 in 10.0 mi NNE 5.8 mph - N/A   Overcast
5:35 PM 46.4 °F 43.5 °F 44.6 °F 93% 30.38 in 10.0 mi NNE 5.8 mph - N/A   Overcast
5:55 PM 46.4 °F 42.9 °F 44.6 °F 93% 30.38 in 10.0 mi NNE 6.9 mph - N/A   Overcast
6:15 PM 46.4 °F 42.9 °F 44.6 °F 93% 30.38 in 10.0 mi NNE 6.9 mph - N/A   Mostly Cloudy
6:35 PM 46.4 °F 43.5 °F 44.6 °F 93% 30.37 in 10.0 mi NNE 5.8 mph - N/A   Mostly Cloudy
6:55 PM 46.4 °F 44.3 °F 46.4 °F 100% 30.38 in 10.0 mi NNE 4.6 mph - N/A   Mostly Cloudy
7:15 PM 46.4 °F 45.2 °F 46.4 °F 100% 30.38 in 10.0 mi North 3.5 mph - N/A   Mostly Cloudy
7:35 PM 46.4 °F 44.3 °F 46.4 °F 100% 30.37 in 10.0 mi North 4.6 mph - N/A   Overcast
7:55 PM 46.4 °F 42.9 °F 46.4 °F 100% 30.37 in 10.0 mi NNE 6.9 mph - N/A   Overcast
8:15 PM 46.4 °F 44.3 °F 46.4 °F 100% 30.36 in 10.0 mi NNE 4.6 mph - N/A   Overcast
8:35 PM 46.4 °F 43.5 °F 46.4 °F 100% 30.34 in 10.0 mi NNE 5.8 mph - N/A   Mostly Cloudy
8:55 PM 46.4 °F 45.2 °F 46.4 °F 100% 30.34 in 10.0 mi NNE 3.5 mph - N/A   Scattered Clouds
9:15 PM 48.2 °F - 48.2 °F 100% 30.33 in 9.0 mi NNE 4.6 mph - N/A   Scattered Clouds
9:35 PM 48.2 °F - 48.2 °F 100% 30.31 in 9.0 mi NE 5.8 mph - N/A   Mostly Cloudy
9:55 PM 50.0 °F - 50.0 °F 100% 30.31 in 9.0 mi NE 6.9 mph - N/A   Overcast
10:15 PM 50.0 °F - 50.0 °F 100% 30.30 in 9.0 mi NNE 4.6 mph - N/A   Overcast
10:35 PM 50.0 °F - 50.0 °F 100% 30.29 in 9.0 mi NE 8.1 mph - N/A   Overcast
10:55 PM 51.8 °F - 51.8 °F 100% 30.28 in 9.0 mi ENE 5.8 mph - N/A   Overcast
11:15 PM 51.8 °F - 51.8 °F 100% 30.28 in 9.0 mi NE 3.5 mph - N/A   Overcast
11:35 PM 48.2 °F - 48.2 °F 100% 30.27 in 9.0 mi North 5.8 mph - N/A   Overcast
11:55 PM 46.4 °F 44.3 °F 46.4 °F 100% 30.27 in 10.0 mi North 4.6 mph - N/A   Overcast